Change the Weather History Date:

Friday, July 26, 2013

  Actual Average Record
Temperature  
Mean Temperature 66 °F -  
Max Temperature 82 °F 84 °F 101 °F (1941)
Min Temperature 51 °F 62 °F 48 °F (1946)
Growing Degree Days 16 (Base 50)    
Moisture  
Dew Point 55 °F    
Average Humidity 79    
Maximum Humidity 100    
Minimum Humidity 43    
Precipitation  
Precipitation 0.00 in - - ()
Sea Level Pressure  
Sea Level Pressure 30.07 in    
Wind  
Wind Speed 1 mph (SSW)    
Max Wind Speed 7 mph    
Max Gust Speed -    
Visibility 6 miles    
Events Fog    
Averages and records for this station are not official NWS values.
T = Trace of Precipitation, MM = Missing Value Source: NWS Daily Summary

Daily Weather History Graph

Daily Weather History Graph

Search for Another Location

Airport or City:

Trip Planner

Search our weather history database for the weather conditions in past years. The results will help you decide how hot, cold, wet, or windy it might be!

Date:

Astronomy

Jul. 26, 2013 Rise Set
Actual Time 6:24 AM EDT 8:49 PM EDT
Civil Twilight 5:53 AM EDT 9:19 PM EDT
Nautical Twilight 5:15 AM EDT 9:57 PM EDT
Astronomical Twilight 4:33 AM EDT 10:39 PM EDT
Moon 11:03 PM EDT (7/26) 10:58 AM EDT (7/26)
Length of Visible Light 15h 26m
Length of Day
14h 24m
Waning Gibbous, 80% of the Moon is Illuminated
Jul 26
Waning Gibbous
Jul 29
Last Quarter
Aug 6
New
Aug 14
First Quarter
Aug 20
Full

Hourly Weather History & Observations

Time (EDT) Temp. Heat Index Dew Point Humidity Pressure Visibility Wind Dir Wind Speed Gust Speed Precip Events Conditions
12:53 AM 55.9 °F - 54.0 °F 93% 30.10 in 10.0 mi Calm Calm - N/A   Clear
1:53 AM 55.0 °F - 53.1 °F 93% 30.09 in 6.0 mi Calm Calm - N/A   Clear
2:53 AM 54.0 °F - 53.1 °F 97% 30.09 in 5.0 mi Calm Calm - N/A   Clear
3:46 AM 53.6 °F - 51.8 °F 94% 30.09 in 1.8 mi Calm Calm - N/A   Clear
3:51 AM 53.6 °F - 51.8 °F 94% 30.09 in 0.8 mi Calm Calm - N/A   Clear
3:53 AM 53.1 °F - 51.1 °F 93% 30.08 in 0.8 mi Calm Calm - N/A   Clear
4:07 AM 51.8 °F - 51.8 °F 100% 30.08 in 1.2 mi Calm Calm - N/A   Clear
4:10 AM 51.8 °F - 51.8 °F 100% 30.08 in 2.5 mi Calm Calm - N/A   Clear
4:17 AM 53.6 °F - 51.8 °F 94% 30.08 in 5.0 mi Calm Calm - N/A   Clear
4:43 AM 51.8 °F - 51.8 °F 100% 30.09 in 1.5 mi Calm Calm - N/A   Clear
4:46 AM 51.8 °F - 50.0 °F 94% 30.09 in 0.8 mi Calm Calm - N/A   Clear
4:53 AM 51.1 °F - 50.0 °F 96% 30.08 in 0.5 mi Calm Calm - N/A Fog Fog
5:31 AM 51.8 °F - 51.8 °F 100% 30.09 in 0.5 mi Calm Calm - N/A Fog Fog
5:53 AM 51.1 °F - 50.0 °F 96% 30.10 in 0.5 mi Calm Calm - N/A Fog Fog
6:39 AM 51.8 °F - 50.0 °F 94% 30.10 in 2.0 mi Calm Calm - N/A   Partly Cloudy
6:46 AM 51.8 °F - 51.8 °F 100% 30.10 in 7.0 mi Calm Calm - N/A   Partly Cloudy
6:53 AM 51.1 °F - 51.1 °F 100% 30.09 in 6.0 mi Calm Calm - N/A   Clear
7:53 AM 57.9 °F - 55.9 °F 93% 30.09 in 10.0 mi Calm Calm - N/A   Clear
8:53 AM 64.0 °F - 57.9 °F 80% 30.10 in 10.0 mi Calm Calm - N/A   Clear
9:53 AM 71.1 °F - 57.0 °F 61% 30.11 in 10.0 mi SE 3.5 mph - N/A   Clear
10:53 AM 75.0 °F - 55.0 °F 50% 30.10 in 10.0 mi Calm Calm - N/A   Clear
11:53 AM 75.9 °F - 55.0 °F 48% 30.09 in 10.0 mi Calm Calm - N/A   Clear
12:53 PM 78.1 °F - 54.0 °F 43% 30.09 in 10.0 mi South 5.8 mph - N/A   Mostly Cloudy
1:53 PM 78.1 °F - 54.0 °F 43% 30.07 in 9.0 mi Calm Calm - N/A   Partly Cloudy
2:53 PM 79.0 °F - 57.0 °F 47% 30.05 in 10.0 mi Calm Calm - N/A   Clear
3:53 PM 80.1 °F 80.2 °F 55.9 °F 43% 30.03 in 10.0 mi WSW 6.9 mph - N/A   Clear
4:53 PM 80.1 °F 80.2 °F 55.9 °F 43% 30.02 in 10.0 mi SSW 6.9 mph - N/A   Clear
5:53 PM 79.0 °F - 57.9 °F 48% 30.01 in 10.0 mi SSW 4.6 mph - N/A   Clear
6:53 PM 77.0 °F - 57.9 °F 52% 30.01 in 10.0 mi SSW 5.8 mph - N/A   Clear
7:53 PM 75.0 °F - 60.1 °F 60% 30.00 in 10.0 mi South 3.5 mph - N/A   Clear
8:53 PM 69.1 °F - 62.1 °F 78% 29.99 in 10.0 mi Calm Calm - N/A   Clear
9:53 PM 66.0 °F - 62.1 °F 87% 30.00 in 9.0 mi Calm Calm - N/A   Clear
10:53 PM 62.1 °F - 60.1 °F 93% 30.00 in 7.0 mi Calm Calm - N/A   Clear
11:53 PM 63.0 °F - 61.0 °F 93% 29.99 in 8.0 mi Calm Calm - N/A   Clear